utcTime,localTime,pm25,nowcast
2022-09-09 15:00:00 +0000,2022-09-09 08:00:00 -0700,27,NA
2022-09-09 16:00:00 +0000,2022-09-09 09:00:00 -0700,23.5,25.1
2022-09-09 17:00:00 +0000,2022-09-09 10:00:00 -0700,21.5,23.5
2022-09-09 18:00:00 +0000,2022-09-09 11:00:00 -0700,29,25.5
2022-09-09 19:00:00 +0000,2022-09-09 12:00:00 -0700,26.2,25.7
2022-09-09 20:00:00 +0000,2022-09-09 13:00:00 -0700,23,24.8
2022-09-09 21:00:00 +0000,2022-09-09 14:00:00 -0700,16.5,21
2022-09-09 22:00:00 +0000,2022-09-09 15:00:00 -0700,13.5,16.9
2022-09-09 23:00:00 +0000,2022-09-09 16:00:00 -0700,11.9,14.4
2022-09-10 00:00:00 +0000,2022-09-09 17:00:00 -0700,7.9,11.1
2022-09-10 01:00:00 +0000,2022-09-09 18:00:00 -0700,6.6,8.8
2022-09-10 02:00:00 +0000,2022-09-09 19:00:00 -0700,6.7,7.7
2022-09-10 03:00:00 +0000,2022-09-09 20:00:00 -0700,7.8,7.7
2022-09-10 04:00:00 +0000,2022-09-09 21:00:00 -0700,11.2,9.4
2022-09-10 05:00:00 +0000,2022-09-09 22:00:00 -0700,12.1,10.7
2022-09-10 06:00:00 +0000,2022-09-09 23:00:00 -0700,12.5,11.6
2022-09-10 07:00:00 +0000,2022-09-10 00:00:00 -0700,13.7,12.6
2022-09-10 08:00:00 +0000,2022-09-10 01:00:00 -0700,14,13.3
2022-09-10 09:00:00 +0000,2022-09-10 02:00:00 -0700,14.8,14
2022-09-10 10:00:00 +0000,2022-09-10 03:00:00 -0700,21.2,17.6
2022-09-10 11:00:00 +0000,2022-09-10 04:00:00 -0700,25.8,21.7
2022-09-10 12:00:00 +0000,2022-09-10 05:00:00 -0700,28.6,25.1
2022-09-10 13:00:00 +0000,2022-09-10 06:00:00 -0700,26.8,25.9
2022-09-10 14:00:00 +0000,2022-09-10 07:00:00 -0700,35.1,30.5
2022-09-10 15:00:00 +0000,2022-09-10 08:00:00 -0700,40.1,35.3
2022-09-10 16:00:00 +0000,2022-09-10 09:00:00 -0700,53.6,44.4
2022-09-10 17:00:00 +0000,2022-09-10 10:00:00 -0700,50.5,47.4
2022-09-10 18:00:00 +0000,2022-09-10 11:00:00 -0700,46,46.7
2022-09-10 19:00:00 +0000,2022-09-10 12:00:00 -0700,41,43.8
2022-09-10 20:00:00 +0000,2022-09-10 13:00:00 -0700,33.6,38.7
2022-09-10 21:00:00 +0000,2022-09-10 14:00:00 -0700,33,35.8
2022-09-10 22:00:00 +0000,2022-09-10 15:00:00 -0700,33.2,34.5
2022-09-10 23:00:00 +0000,2022-09-10 16:00:00 -0700,33.5,34
2022-09-11 00:00:00 +0000,2022-09-10 17:00:00 -0700,31,32.5
2022-09-11 01:00:00 +0000,2022-09-10 18:00:00 -0700,29.5,31.3
2022-09-11 02:00:00 +0000,2022-09-10 19:00:00 -0700,27.9,29.5
2022-09-11 03:00:00 +0000,2022-09-10 20:00:00 -0700,27.3,28.4
2022-09-11 04:00:00 +0000,2022-09-10 21:00:00 -0700,27,27.8
2022-09-11 05:00:00 +0000,2022-09-10 22:00:00 -0700,26.4,27.3
2022-09-11 06:00:00 +0000,2022-09-10 23:00:00 -0700,25.5,26.7
2022-09-11 07:00:00 +0000,2022-09-11 00:00:00 -0700,25.3,26.9
2022-09-11 08:00:00 +0000,2022-09-11 01:00:00 -0700,24.7,26.2
2022-09-11 09:00:00 +0000,2022-09-11 02:00:00 -0700,24,25.4
2022-09-11 10:00:00 +0000,2022-09-11 03:00:00 -0700,24.4,25.1
2022-09-11 11:00:00 +0000,2022-09-11 04:00:00 -0700,24.8,25.1
2022-09-11 12:00:00 +0000,2022-09-11 05:00:00 -0700,24,24.9
2022-09-11 13:00:00 +0000,2022-09-11 06:00:00 -0700,24.1,24.8
2022-09-11 14:00:00 +0000,2022-09-11 07:00:00 -0700,23.7,24.6
2022-09-11 15:00:00 +0000,2022-09-11 08:00:00 -0700,24.2,24.5
2022-09-11 16:00:00 +0000,2022-09-11 09:00:00 -0700,25,24.5
2022-09-11 17:00:00 +0000,2022-09-11 10:00:00 -0700,27.8,25
2022-09-11 18:00:00 +0000,2022-09-11 11:00:00 -0700,29.7,26.1
2022-09-11 19:00:00 +0000,2022-09-11 12:00:00 -0700,29.5,26.8
2022-09-11 20:00:00 +0000,2022-09-11 13:00:00 -0700,28.5,27.2
2022-09-11 21:00:00 +0000,2022-09-11 14:00:00 -0700,28,27.4
2022-09-11 22:00:00 +0000,2022-09-11 15:00:00 -0700,27.5,27.5
2022-09-11 23:00:00 +0000,2022-09-11 16:00:00 -0700,26.8,27.3
2022-09-12 00:00:00 +0000,2022-09-11 17:00:00 -0700,27.6,27.4
2022-09-12 01:00:00 +0000,2022-09-11 18:00:00 -0700,28.8,27.8
2022-09-12 02:00:00 +0000,2022-09-11 19:00:00 -0700,28.6,28
2022-09-12 03:00:00 +0000,2022-09-11 20:00:00 -0700,27.8,28
2022-09-12 04:00:00 +0000,2022-09-11 21:00:00 -0700,27.7,28
2022-09-12 05:00:00 +0000,2022-09-11 22:00:00 -0700,26.9,27.9
2022-09-12 06:00:00 +0000,2022-09-11 23:00:00 -0700,26.8,27.7
2022-09-12 07:00:00 +0000,2022-09-12 00:00:00 -0700,26.1,27.4
2022-09-12 08:00:00 +0000,2022-09-12 01:00:00 -0700,24.9,26.9
2022-09-12 09:00:00 +0000,2022-09-12 02:00:00 -0700,24.2,26.3
2022-09-12 10:00:00 +0000,2022-09-12 03:00:00 -0700,25,26
2022-09-12 11:00:00 +0000,2022-09-12 04:00:00 -0700,25.4,25.9
2022-09-12 12:00:00 +0000,2022-09-12 05:00:00 -0700,27,26
2022-09-12 13:00:00 +0000,2022-09-12 06:00:00 -0700,28.5,26.4
2022-09-12 14:00:00 +0000,2022-09-12 07:00:00 -0700,27.2,26.5
2022-09-12 15:00:00 +0000,2022-09-12 08:00:00 -0700,26.9,26.5
2022-09-12 16:00:00 +0000,2022-09-12 09:00:00 -0700,28.5,26.8
2022-09-12 17:00:00 +0000,2022-09-12 10:00:00 -0700,36.7,30.6
2022-09-12 18:00:00 +0000,2022-09-12 11:00:00 -0700,40.4,34.9
2022-09-12 19:00:00 +0000,2022-09-12 12:00:00 -0700,38.8,36.4
2022-09-12 20:00:00 +0000,2022-09-12 13:00:00 -0700,38.3,37.2
2022-09-12 21:00:00 +0000,2022-09-12 14:00:00 -0700,37.9,37.3
2022-09-12 22:00:00 +0000,2022-09-12 15:00:00 -0700,36.9,37.1
2022-09-12 23:00:00 +0000,2022-09-12 16:00:00 -0700,34.9,36.3
2022-09-13 00:00:00 +0000,2022-09-12 17:00:00 -0700,31.4,34.6
2022-09-13 01:00:00 +0000,2022-09-12 18:00:00 -0700,30,33.1
2022-09-13 02:00:00 +0000,2022-09-12 19:00:00 -0700,32.5,32.9
2022-09-13 03:00:00 +0000,2022-09-12 20:00:00 -0700,37.4,34.4
2022-09-13 04:00:00 +0000,2022-09-12 21:00:00 -0700,38.1,35.5
2022-09-13 05:00:00 +0000,2022-09-12 22:00:00 -0700,32.9,34.8
2022-09-13 06:00:00 +0000,2022-09-12 23:00:00 -0700,33.5,34.4
2022-09-13 07:00:00 +0000,2022-09-13 00:00:00 -0700,35.2,34.6
2022-09-13 08:00:00 +0000,2022-09-13 01:00:00 -0700,38.6,35.4
2022-09-13 09:00:00 +0000,2022-09-13 02:00:00 -0700,36.6,35.7
2022-09-13 10:00:00 +0000,2022-09-13 03:00:00 -0700,33.8,35.2
2022-09-13 11:00:00 +0000,2022-09-13 04:00:00 -0700,25,31.6
2022-09-13 12:00:00 +0000,2022-09-13 05:00:00 -0700,16.6,23.3
2022-09-13 13:00:00 +0000,2022-09-13 06:00:00 -0700,19,21.1
2022-09-13 14:00:00 +0000,2022-09-13 07:00:00 -0700,24.4,22.7
2022-09-13 15:00:00 +0000,2022-09-13 08:00:00 -0700,26.1,24.4
2022-09-13 16:00:00 +0000,2022-09-13 09:00:00 -0700,26.3,25.3
2022-09-13 17:00:00 +0000,2022-09-13 10:00:00 -0700,21.8,23.5
2022-09-13 18:00:00 +0000,2022-09-13 11:00:00 -0700,23.1,23.3
2022-09-13 19:00:00 +0000,2022-09-13 12:00:00 -0700,23.3,23.3
2022-09-13 20:00:00 +0000,2022-09-13 13:00:00 -0700,24.5,23.9
2022-09-13 21:00:00 +0000,2022-09-13 14:00:00 -0700,22.2,23
2022-09-13 22:00:00 +0000,2022-09-13 15:00:00 -0700,18.5,21.4
2022-09-13 23:00:00 +0000,2022-09-13 16:00:00 -0700,18.1,20.2
2022-09-14 00:00:00 +0000,2022-09-13 17:00:00 -0700,23.1,21.3
2022-09-14 01:00:00 +0000,2022-09-13 18:00:00 -0700,28.4,23.8
2022-09-14 02:00:00 +0000,2022-09-13 19:00:00 -0700,26.1,24.6
2022-09-14 03:00:00 +0000,2022-09-13 20:00:00 -0700,14.4,19.9
2022-09-14 04:00:00 +0000,2022-09-13 21:00:00 -0700,12.8,16.3
2022-09-14 05:00:00 +0000,2022-09-13 22:00:00 -0700,12.6,14.4
2022-09-14 06:00:00 +0000,2022-09-13 23:00:00 -0700,14.5,14.4
2022-09-14 07:00:00 +0000,2022-09-14 00:00:00 -0700,14.3,14.3
2022-09-14 08:00:00 +0000,2022-09-14 01:00:00 -0700,15,14.6
2022-09-14 09:00:00 +0000,2022-09-14 02:00:00 -0700,19.7,17.1
2022-09-14 10:00:00 +0000,2022-09-14 03:00:00 -0700,22.8,19.9
2022-09-14 11:00:00 +0000,2022-09-14 04:00:00 -0700,23.3,21.6
2022-09-14 12:00:00 +0000,2022-09-14 05:00:00 -0700,22.2,21.9
2022-09-14 13:00:00 +0000,2022-09-14 06:00:00 -0700,22,21.9
2022-09-14 14:00:00 +0000,2022-09-14 07:00:00 -0700,18.1,20.1
2022-09-14 15:00:00 +0000,2022-09-14 08:00:00 -0700,18.6,19.4
2022-09-14 16:00:00 +0000,2022-09-14 09:00:00 -0700,18.2,18.8
2022-09-14 17:00:00 +0000,2022-09-14 10:00:00 -0700,15.7,17.7
2022-09-14 18:00:00 +0000,2022-09-14 11:00:00 -0700,17.2,17.5
2022-09-14 19:00:00 +0000,2022-09-14 12:00:00 -0700,27.3,21.8
2022-09-14 20:00:00 +0000,2022-09-14 13:00:00 -0700,33.9,28
2022-09-14 21:00:00 +0000,2022-09-14 14:00:00 -0700,28.6,28.3
2022-09-14 22:00:00 +0000,2022-09-14 15:00:00 -0700,21.7,25
2022-09-14 23:00:00 +0000,2022-09-14 16:00:00 -0700,18.5,21.7
2022-09-15 00:00:00 +0000,2022-09-14 17:00:00 -0700,15.8,18.7
2022-09-15 01:00:00 +0000,2022-09-14 18:00:00 -0700,16.1,17.4
2022-09-15 02:00:00 +0000,2022-09-14 19:00:00 -0700,17.6,17.5
2022-09-15 03:00:00 +0000,2022-09-14 20:00:00 -0700,18,17.7
2022-09-15 04:00:00 +0000,2022-09-14 21:00:00 -0700,17.6,17.6
2022-09-15 05:00:00 +0000,2022-09-14 22:00:00 -0700,15.7,16.6
2022-09-15 06:00:00 +0000,2022-09-14 23:00:00 -0700,13.3,14.9
2022-09-15 07:00:00 +0000,2022-09-15 00:00:00 -0700,11.9,13.4
2022-09-15 08:00:00 +0000,2022-09-15 01:00:00 -0700,13,13.2
2022-09-15 09:00:00 +0000,2022-09-15 02:00:00 -0700,14.2,13.7
2022-09-15 10:00:00 +0000,2022-09-15 03:00:00 -0700,14.8,14.2
2022-09-15 11:00:00 +0000,2022-09-15 04:00:00 -0700,14.7,14.3
2022-09-15 12:00:00 +0000,2022-09-15 05:00:00 -0700,14.4,14.3
2022-09-15 13:00:00 +0000,2022-09-15 06:00:00 -0700,14.3,14.3
2022-09-15 14:00:00 +0000,2022-09-15 07:00:00 -0700,14.3,14.3
2022-09-15 15:00:00 +0000,2022-09-15 08:00:00 -0700,14.4,14.3
2022-09-15 16:00:00 +0000,2022-09-15 09:00:00 -0700,14.4,14.3
2022-09-15 17:00:00 +0000,2022-09-15 10:00:00 -0700,14.2,14.2
2022-09-15 18:00:00 +0000,2022-09-15 11:00:00 -0700,13.8,14.1
2022-09-15 19:00:00 +0000,2022-09-15 12:00:00 -0700,13,14
2022-09-15 20:00:00 +0000,2022-09-15 13:00:00 -0700,13.7,14
2022-09-15 21:00:00 +0000,2022-09-15 14:00:00 -0700,14.3,14
2022-09-15 22:00:00 +0000,2022-09-15 15:00:00 -0700,12.8,13.8
2022-09-15 23:00:00 +0000,2022-09-15 16:00:00 -0700,11.3,13.1
2022-09-16 00:00:00 +0000,2022-09-15 17:00:00 -0700,11.9,12.8
2022-09-16 01:00:00 +0000,2022-09-15 18:00:00 -0700,11.7,12.5
2022-09-16 02:00:00 +0000,2022-09-15 19:00:00 -0700,11.7,12.3
2022-09-16 03:00:00 +0000,2022-09-15 20:00:00 -0700,11.1,11.9
2022-09-16 04:00:00 +0000,2022-09-15 21:00:00 -0700,12.1,12
2022-09-16 05:00:00 +0000,2022-09-15 22:00:00 -0700,11.8,11.9
2022-09-16 06:00:00 +0000,2022-09-15 23:00:00 -0700,10.7,11.5
2022-09-16 07:00:00 +0000,2022-09-16 00:00:00 -0700,8.6,10.2
2022-09-16 08:00:00 +0000,2022-09-16 01:00:00 -0700,7.3,8.6
2022-09-16 09:00:00 +0000,2022-09-16 02:00:00 -0700,6.6,7.6
2022-09-16 10:00:00 +0000,2022-09-16 03:00:00 -0700,6.1,6.8
2022-09-16 11:00:00 +0000,2022-09-16 04:00:00 -0700,6,6.4
2022-09-16 12:00:00 +0000,2022-09-16 05:00:00 -0700,6.1,6.2
2022-09-16 13:00:00 +0000,2022-09-16 06:00:00 -0700,5.9,6
2022-09-16 14:00:00 +0000,2022-09-16 07:00:00 -0700,6.3,6.1
2022-09-16 15:00:00 +0000,2022-09-16 08:00:00 -0700,6.8,6.4
2022-09-16 16:00:00 +0000,2022-09-16 09:00:00 -0700,6.8,6.6
2022-09-16 17:00:00 +0000,2022-09-16 10:00:00 -0700,6.3,6.4
2022-09-16 18:00:00 +0000,2022-09-16 11:00:00 -0700,6.4,6.4
2022-09-16 19:00:00 +0000,2022-09-16 12:00:00 -0700,13.8,10.1
2022-09-16 20:00:00 +0000,2022-09-16 13:00:00 -0700,16.1,13.1
2022-09-16 21:00:00 +0000,2022-09-16 14:00:00 -0700,12.1,12.6
2022-09-16 22:00:00 +0000,2022-09-16 15:00:00 -0700,6.4,9.5
2022-09-16 23:00:00 +0000,2022-09-16 16:00:00 -0700,6.5,8
2022-09-17 00:00:00 +0000,2022-09-16 17:00:00 -0700,6.5,7.2
2022-09-17 01:00:00 +0000,2022-09-16 18:00:00 -0700,7.1,7.1
2022-09-17 02:00:00 +0000,2022-09-16 19:00:00 -0700,6.2,6.6
2022-09-17 03:00:00 +0000,2022-09-16 20:00:00 -0700,6.7,6.6
2022-09-17 04:00:00 +0000,2022-09-16 21:00:00 -0700,8.2,7.4
2022-09-17 05:00:00 +0000,2022-09-16 22:00:00 -0700,7.5,7.4
2022-09-17 06:00:00 +0000,2022-09-16 23:00:00 -0700,5.7,6.5
2022-09-17 07:00:00 +0000,2022-09-17 00:00:00 -0700,4.9,5.7
2022-09-17 08:00:00 +0000,2022-09-17 01:00:00 -0700,4.4,5
2022-09-17 09:00:00 +0000,2022-09-17 02:00:00 -0700,3.9,4.4
2022-09-17 10:00:00 +0000,2022-09-17 03:00:00 -0700,3.9,4.1
2022-09-17 11:00:00 +0000,2022-09-17 04:00:00 -0700,4.8,4.4
2022-09-17 12:00:00 +0000,2022-09-17 05:00:00 -0700,4.9,4.6
2022-09-17 13:00:00 +0000,2022-09-17 06:00:00 -0700,4.7,4.6
2022-09-17 14:00:00 +0000,2022-09-17 07:00:00 -0700,4.7,4.6
2022-09-17 15:00:00 +0000,2022-09-17 08:00:00 -0700,4.8,4.7
2022-09-17 16:00:00 +0000,2022-09-17 09:00:00 -0700,5.9,5.2
2022-09-17 17:00:00 +0000,2022-09-17 10:00:00 -0700,7.2,6.1
2022-09-17 18:00:00 +0000,2022-09-17 11:00:00 -0700,8.3,7.2
2022-09-17 19:00:00 +0000,2022-09-17 12:00:00 -0700,8.9,8
2022-09-17 20:00:00 +0000,2022-09-17 13:00:00 -0700,10.5,9.2
2022-09-17 21:00:00 +0000,2022-09-17 14:00:00 -0700,11.7,10.4
2022-09-17 22:00:00 +0000,2022-09-17 15:00:00 -0700,11.5,11
2022-09-17 23:00:00 +0000,2022-09-17 16:00:00 -0700,10.9,10.9
2022-09-18 00:00:00 +0000,2022-09-17 17:00:00 -0700,10.6,10.7
2022-09-18 01:00:00 +0000,2022-09-17 18:00:00 -0700,11.5,11.1
2022-09-18 02:00:00 +0000,2022-09-17 19:00:00 -0700,11.3,11.2
2022-09-18 03:00:00 +0000,2022-09-17 20:00:00 -0700,12.5,11.8
2022-09-18 04:00:00 +0000,2022-09-17 21:00:00 -0700,12.7,12.1
2022-09-18 05:00:00 +0000,2022-09-17 22:00:00 -0700,6.8,9.7
2022-09-18 06:00:00 +0000,2022-09-17 23:00:00 -0700,3.8,6.6
2022-09-18 07:00:00 +0000,2022-09-18 00:00:00 -0700,3.5,5
2022-09-18 08:00:00 +0000,2022-09-18 01:00:00 -0700,3.4,4.2
2022-09-18 09:00:00 +0000,2022-09-18 02:00:00 -0700,3.5,3.8
2022-09-18 10:00:00 +0000,2022-09-18 03:00:00 -0700,3.9,3.8
2022-09-18 11:00:00 +0000,2022-09-18 04:00:00 -0700,4.7,4.2
2022-09-18 12:00:00 +0000,2022-09-18 05:00:00 -0700,5.2,4.7
2022-09-18 13:00:00 +0000,2022-09-18 06:00:00 -0700,5.5,5.1
2022-09-18 14:00:00 +0000,2022-09-18 07:00:00 -0700,5.8,5.4
2022-09-18 15:00:00 +0000,2022-09-18 08:00:00 -0700,6.2,5.8
2022-09-18 16:00:00 +0000,2022-09-18 09:00:00 -0700,6.7,6.2
2022-09-18 17:00:00 +0000,2022-09-18 10:00:00 -0700,7,6.6
2022-09-18 18:00:00 +0000,2022-09-18 11:00:00 -0700,6.9,6.7
2022-09-18 19:00:00 +0000,2022-09-18 12:00:00 -0700,7.5,7.1
2022-09-18 20:00:00 +0000,2022-09-18 13:00:00 -0700,6.2,6.6
2022-09-18 21:00:00 +0000,2022-09-18 14:00:00 -0700,6,6.3
2022-09-18 22:00:00 +0000,2022-09-18 15:00:00 -0700,7.2,6.7
2022-09-18 23:00:00 +0000,2022-09-18 16:00:00 -0700,6.8,6.7
2022-09-19 00:00:00 +0000,2022-09-18 17:00:00 -0700,7.4,6.9
2022-09-19 01:00:00 +0000,2022-09-18 18:00:00 -0700,8.2,7.3
2022-09-19 02:00:00 +0000,2022-09-18 19:00:00 -0700,8.2,7.5
2022-09-19 03:00:00 +0000,2022-09-18 20:00:00 -0700,7.3,7.4
2022-09-19 04:00:00 +0000,2022-09-18 21:00:00 -0700,7.3,7.4
2022-09-19 05:00:00 +0000,2022-09-18 22:00:00 -0700,7.2,7.3
2022-09-19 06:00:00 +0000,2022-09-18 23:00:00 -0700,7.2,7.3
2022-09-19 07:00:00 +0000,2022-09-19 00:00:00 -0700,7.1,7.2
2022-09-19 08:00:00 +0000,2022-09-19 01:00:00 -0700,7,7.1
2022-09-19 09:00:00 +0000,2022-09-19 02:00:00 -0700,7,7.2
2022-09-19 10:00:00 +0000,2022-09-19 03:00:00 -0700,7,7.1
2022-09-19 11:00:00 +0000,2022-09-19 04:00:00 -0700,7.4,7.2
2022-09-19 12:00:00 +0000,2022-09-19 05:00:00 -0700,7.6,7.3
2022-09-19 13:00:00 +0000,2022-09-19 06:00:00 -0700,7.4,7.2
2022-09-19 14:00:00 +0000,2022-09-19 07:00:00 -0700,8.1,7.3
2022-09-19 15:00:00 +0000,2022-09-19 08:00:00 -0700,NA,NA
